Regional Weather Roundup
Issued by NWS

Current Version | Previous Version | Text Only | Print | Product List | Glossary On
Versions: 1 2 3 4 5 6 7 8 9 10 11 12 13 14 15 16 17 18 19 20 21 22 23 24 25 26 27 28 29 30 31 32 33 34 35 36 37 38 39 40 41 42 43 44 45 46 47 48 49 50
000
ASUS43 KDTX 200810
RWRMI
MICHIGAN HOURLY REGIONAL WEATHER ROUNDUP
NATIONAL WEATHER SERVICE DETROIT/PONTIAC MI
400 AM EDT WED SEP 20 2017

NOTE: "FAIR" INDICATES FEW OR NO CLOUDS BELOW 12,000 FEET WITH NO
SIGNIFICANT WEATHER AND/OR OBSTRUCTION TO VISIBILITY.

MIZ047>049-052>055-059>063-066>070-074>076-081>083-200900-
SOUTHEAST LOWER MICHIGAN

CITY           SKY/WX    TMP DP  RH WIND       PRES   REMARKS
ADRIAN         FOG       66  66 100 SE3       29.96F VSB 1/2
ALMA           CLOUDY    66  64  95 W5        29.94F FOG
ANN ARBOR      CLOUDY    68  68 100 CALM      29.95S FOG
BAD AXE        CLOUDY    67  65  95 CALM      29.97F FOG
CARO           MOCLDY    65  64  95 CALM      29.95F FOG
DETROIT CITY   FOG       66  66 100 CALM      29.96S VSB 1/4
DETROIT        MOCLDY    67  67 100 CALM      29.96S FOG
FLINT          FOG       63  62  97 CALM      29.95F VSB 1/4
GROSSE ILE     FOG       65  64  98 CALM      29.95S VSB 3/4
HILLSDALE      CLOUDY    66  64  94 SE3       29.94F FOG
HOWELL         CLOUDY    67  66  97 SE5       29.96S FOG

CITY           SKY/WX    TMP DP  RH WIND       PRES   REMARKS
JACKSON        CLOUDY    68  66  93 SE5       29.94F FOG
LAMBERTVILLE   CLOUDY    68  66  92 CALM      29.95S FOG
LANSING        CLOUDY    67  65  93 SE6       29.95F FOG
LAPEER         FAIR      66  65  98 CALM      29.97F FOG
MASON          CLOUDY    68  66  92 SE3       29.95F FOG
MONROE         FOG       67  65  93 S5        29.94S VSB 1
MT. CLEMENS    CLEAR     64  64 100 E6        29.94F FOG
PONTIAC        CLEAR     66  66 100 CALM      29.95F FOG
PORT HOPE        N/A     67  66  97 SE3       29.96F
PORT HURON     CLOUDY    66  64  94 CALM      29.97S FOG
TRI CITIES     CLOUDY    67  67 100 E6        29.95F FOG
MIDLAND        CLOUDY    67  66  99 E3        29.94F FOG
TROY           MOCLDY    67  66  98 CALM      29.98S FOG
SAGINAW HB     CLOUDY    64  64 100 CALM      29.94F FOG
$$
MIZ043>046-050>051-056>058-064>065-071>073-077>080-200900-
SOUTHWEST LOWER MICHIGAN

CITY           SKY/WX    TMP DP  RH WIND       PRES   REMARKS
BATTLE CREEK   CLOUDY    67  67 100 SE3       29.94F FOG
BENTON HARBOR  FOG       64  62  93 S5        29.92R VSB 1/4
BIG RAPIDS     CLOUDY    64  62  94 SE3       29.95R FOG
COLDWATER      CLOUDY    67  67 100 CALM      29.94S FOG
FREMONT        CLOUDY    65  65 100 E6        29.94R FOG
HOLLAND        CLOUDY    66  63  90 SE5       29.93S
GRAND RAPIDS   CLOUDY    66  66 100 E6        29.93F FOG
IONIA          CLOUDY    66  66  99 SE6       29.93F FOG
KALAMAZOO      CLOUDY    68  64  87 CALM      29.93F FOG
LUDINGTON      CLOUDY    63  61  95 SE5       29.93S FOG
MARSHALL       CLOUDY    66  65  97 CALM      29.94S FOG
MOUNT PLEASANT FOG       66  65  96 CALM      29.95S VSB 1
MUSKEGON       CLOUDY    64  63  96 SE3       29.93R FOG
SOUTH HAVEN    CLOUDY    65  64  96 CALM      29.92S FOG
$$
MIZ016>042-200900-
NORTHERN LOWER MICHIGAN

CITY           SKY/WX    TMP DP  RH WIND       PRES   REMARKS
ALPENA         FOG       66  66 100 E5        29.98S VSB 1/2
BEAVER ISLAND  CLEAR     61  61  99 SE6       29.97R
BELLAIRE       MOCLDY    58  56  95 CALM      29.96S FOG
CADILLAC       CLOUDY    65  62  90 SE6       29.97R FOG
CHARLEVOIX     CLEAR     62  62 100 SE5       29.99S
FRANKFORT      MOCLDY    64  63  97 E5        29.94S
GAYLORD        CLOUDY    62  60  93 E5        29.98S FOG
GRAYLING       FOG       61  59  95 E5        29.99R VSB 3/4
HARBOR SPRINGS PTCLDY    61  60  95 NE6       29.97S
HOUGHTON LAKE  FOG       63  62  97 SE5       29.98F VSB 1
MANISTEE       CLOUDY    61  60  97 E3        29.94S
OSCODA         CLOUDY    67  66  98 SE3       29.96F FOG
PELLSTON       CLOUDY    62  61  96 CALM      29.98F FOG
ROGERS CITY    CLOUDY    64  63  96 CALM      30.00R FOG
TRAVERSE CITY  CLOUDY    66  61  84 CALM      29.94S
$$
MIZ007>008-015-200900-
EASTERN UPPER MICHIGAN

CITY           SKY/WX    TMP DP  RH WIND       PRES   REMARKS
KINROSS        CLOUDY    62  60  93 SE7       29.99S
MACKINAC ISLAN CLOUDY    64  64 100 E5        29.98S
NEWBERRY       CLOUDY    60  59  97 SE7       29.98R FOG
S. S. MARIE    CLOUDY    61  57  87 CALM      29.99S
MUNISING         N/A     59  59 100 VRB7      29.93F
$$
MIZ004>006-011>014-085-200900-
CENTRAL UPPER MICHIGAN

CITY           SKY/WX    TMP DP  RH WIND       PRES   REMARKS
MANISTIQUE     CLEAR     61  55  81 SE5       29.97R
MENOMINEE      CLEAR     57  56  96 CALM      29.94R
SAWYER-GWINN   MOCLDY    56  56  97 S9        29.93F
$$
MIZ001>003-009>011-084-200900-
WESTERN UPPER MICHIGAN

CITY           SKY/WX    TMP DP  RH WIND       PRES   REMARKS
IRON MOUNTAIN  FOG       58  56  93 S6        29.92S VSB 1/4
HOUGHTON       CLOUDY    56  52  86 E6        29.87F
COPPER HARBOR    N/A     60  55  83 S9G17     29.86F
IRONWOOD       PTCLDY    61  55  81 SE12G21   29.78F
$$

ABBREVIATIONS USED IN REMARKS
   TC - TEMPERATURE IN CELSIUS
  WCI - WIND CHILL INDEX
   HX - HEAT INDEX
  VSB - VISIBILITY




USA.gov is the U.S. government's official web portal to all federal, state and local government web resources and services.